STARLINK-1641 (46174 NORAD) Tracking and Keplerian Element Data

This shows tracking and keplerian element data for the satellite.

Feedback or suggestion? Click here.




ElementValue
Catalog46174
NameSTARLINK-1641
Epoch Orbit177
Epoch Day268.91668981
Epoch Year2020
RAAN259.331
Inclination53.0008
Eccentricity0.0001434
Argument of Perigee67.5344
Mean Anonmoly100.7028
Mean Motion15.31108977
Decay Rate-0.01070553
L11 46174U 20057BK 20268.91668981 -.01070553 00000-0 -38319-1 0 9990
L22 46174 53.0008 259.3310 0001434 67.5344 100.7028 15.31108977 1779

Live tracking and technical data element details for STARLINK-1641 (NORAD 46174). STARLINK-1641 can be tracked NOW for your location showing map with azimuth and elevation plus other details from your city location.

Track the satellite on the map from your city or location and see movement details for azimuth, elevation, latitude, longitude, range, height, and movement on the map or in text.







IsCatalogInMostPopularTable: catalog: 46174, numindb: 12
Update: records affected: 1



GetName: 46174 STARLINK-1641

Hit Count: updated at: Mon, 28 Sep 2020 22:33:26 GMT